This is the latest recevied weather packets stored in our database for station/object NR0A-4. If no packets are shown the sender has not sent any weather packets the latest 10 day(s).
| Time | Temp. | Humidity | Pressure | Rain* | Wind** | Luminosity | Snow |
|---|---|---|---|---|---|---|---|
| 1788617404 | 24.44° C | 82% | 1015.6 hPa | 0 mm | - | 93 W/m² | - |
| 1788617105 | 24.44° C | 83% | 1015.5 hPa | 0 mm | - | 97 W/m² | - |
| 1788616804 | 24.44° C | 83% | 1015.3 hPa | 0 mm | - | 104 W/m² | - |
| 1788616504 | 24.44° C | 85% | 1015.3 hPa | 0 mm | - | 100 W/m² | - |
| 1788616205 | 24.44° C | 86% | 1015.1 hPa | 0 mm | - | 107 W/m² | - |
| 1788615905 | 25° C | 86% | 1014.9 hPa | 0 mm | - | 42 W/m² | - |
| 1788615605 | 25° C | 87% | 1015 hPa | 0 mm | - | 32 W/m² | - |
| 1788615305 | 25° C | 87% | 1014.9 hPa | 0 mm | - | 40 W/m² | - |
| 1788615005 | 25° C | 87% | 1015 hPa | 0 mm | - | 40 W/m² | - |
| 1788614706 | 25° C | 87% | 1014.8 hPa | 0 mm | - | 39 W/m² | - |
| 1788614405 | 25° C | 87% | 1014.6 hPa | 0 mm | - | 33 W/m² | - |
| 1788614105 | 25° C | 87% | 1014.5 hPa | 0 mm | - | 32 W/m² | - |
| 1788613806 | 25° C | 86% | 1014.5 hPa | 0 mm | - | 30 W/m² | - |
| 1788613505 | 25° C | 85% | 1014.5 hPa | 0 mm | - | 37 W/m² | - |
| 1788613205 | 25° C | 85% | 1014.5 hPa | 0 mm | - | 40 W/m² | - |
| 1788612905 | 25° C | 84% | 1014.6 hPa | 0 mm | - | 37 W/m² | - |
| 1788612605 | 25° C | 82% | 1014.7 hPa | 0 mm | - | 30 W/m² | - |
| 1788612305 | 25° C | 80% | 1014.8 hPa | 0 mm | - | 23 W/m² | - |
| 1788612005 | 25° C | 79% | 1014.7 hPa | 0 mm | - | 16 W/m² | - |
| 1788611705 | 25° C | 77% | 1014.7 hPa | 0 mm | - | 12 W/m² | - |
| 1788611405 | 25° C | 77% | 1014.3 hPa | 0 mm | - | 9 W/m² | - |
| 1788611106 | 25° C | 77% | 1013.9 hPa | 0 mm | - | 7 W/m² | - |
| 1788610824 | 25° C | 77% | 1014.1 hPa | 0 mm | - | 0 W/m² | - |
| 1788610505 | 25° C | 77% | 1014.5 hPa | 0 mm | - | 0 W/m² | - |
| 1788610206 | 24.44° C | 79% | 1014.4 hPa | 0 mm | - | 0 W/m² | - |
* Rain latest hour (hover to see other rain measurements)
** Current wind speed in m/s (hover to see current wind gust speed)